�������l�o���
Date,Time,MP-1(��Sv/h),MP-2(��Sv/h),MP-3(��Sv/h),MP-4(��Sv/h),MP-5(��Sv/h),MP-6(��Sv/h),MP-7(��Sv/h),MP-8(��Sv/h),����,����(m/s),���J
2021/05/01,00:00,0.615,0.902,0.574,1.109,0.769,0.368,0.642,0.603,�k��,3.9,��
2021/05/01,00:10,0.614,0.905,0.573,1.110,0.769,0.368,0.642,0.602,�k,4.3,��
2021/05/01,00:20,0.615,0.901,0.574,1.111,0.770,0.367,0.643,0.602,�k,3.8,��
2021/05/01,00:30,0.611,0.901,0.571,1.112,0.770,0.367,0.642,0.602,�k,5.1,��
2021/05/01,00:40,0.613,0.901,0.573,1.114,0.770,0.367,0.642,0.603,�k�k��,5.9,��
2021/05/01,00:50,0.614,0.902,0.572,1.108,0.770,0.368,0.644,0.602,�k��,3.7,��
2021/05/01,01:00,0.613,0.901,0.574,1.111,0.771,0.368,0.644,0.604,�k�k��,2.9,��
2021/05/01,01:10,0.613,0.901,0.572,1.113,0.769,0.367,0.643,0.602,�k�k��,2.5,��
2021/05/01,01:20,0.613,0.901,0.574,1.111,0.768,0.368,0.643,0.602,�k��,2.6,��
2021/05/01,01:30,0.612,0.901,0.572,1.111,0.772,0.369,0.643,0.602,�k��,5.3,��
2021/05/01,01:40,0.614,0.904,0.572,1.111,0.770,0.368,0.644,0.604,���k��,7.2,��
2021/05/01,01:50,0.615,0.902,0.573,1.111,0.768,0.367,0.645,0.603,�k��,5.9,��
2021/05/01,02:00,0.613,0.904,0.572,1.114,0.769,0.369,0.643,0.603,�k�k��,3.9,��
2021/05/01,02:10,0.615,0.900,0.574,1.112,0.769,0.367,0.644,0.604,�k�k��,3.3,��
2021/05/01,02:20,0.614,0.902,0.572,1.110,0.770,0.367,0.642,0.603,�k�k��,2.6,��
2021/05/01,02:30,0.612,0.902,0.572,1.110,0.770,0.367,0.643,0.603,�k�k��,2.9,��
2021/05/01,02:40,0.612,0.903,0.574,1.112,0.771,0.367,0.641,0.602,�k,2.0,��
2021/05/01,02:50,0.613,0.900,0.574,1.112,0.771,0.368,0.644,0.603,�k�k��,2.0,��
2021/05/01,03:00,0.614,0.901,0.572,1.111,0.771,0.367,0.642,0.604,�k��,1.7,��
2021/05/01,03:10,0.613,0.902,0.573,1.111,0.769,0.367,0.642,0.603,�k�k��,1.2,��
2021/05/01,03:20,0.614,0.901,0.572,1.111,0.771,0.368,0.642,0.602,�k�k��,0.9,��
2021/05/01,03:30,0.613,0.901,0.574,1.111,0.770,0.367,0.642,0.602,��,0.6,��
2021/05/01,03:40,0.615,0.901,0.572,1.111,0.770,0.366,0.642,0.602,��,0.6,��
2021/05/01,03:50,0.614,0.902,0.572,1.113,0.770,0.368,0.642,0.603,���k��,0.9,��
2021/05/01,04:00,0.614,0.902,0.573,1.112,0.770,0.368,0.644,0.603,��,0.9,��
2021/05/01,04:10,0.613,0.901,0.572,1.112,0.772,0.367,0.643,0.603,�k��,0.6,��
2021/05/01,04:20,0.613,0.902,0.571,1.109,0.769,0.367,0.642,0.603,-,CALM,��
2021/05/01,04:30,0.612,0.901,0.573,1.110,0.772,0.367,0.642,0.602,�k�k��,1.4,��
2021/05/01,04:40,0.613,0.901,0.574,1.111,0.772,0.367,0.644,0.604,�k��,0.9,��
2021/05/01,04:50,0.613,0.901,0.573,1.110,0.770,0.367,0.644,0.602,-,CALM,��
2021/05/01,05:00,0.614,0.902,0.573,1.112,0.772,0.367,0.644,0.602,���쐼,1.5,��
2021/05/01,05:10,0.612,0.903,0.574,1.109,0.773,0.367,0.642,0.601,���쐼,1.4,��
2021/05/01,05:20,0.613,0.901,0.573,1.113,0.773,0.368,0.643,0.603,���쐼,1.2,��
2021/05/01,05:30,0.613,0.903,0.574,1.112,0.772,0.367,0.644,0.602,-,CALM,��
2021/05/01,05:40,0.613,0.903,0.572,1.111,0.772,0.368,0.642,0.601,���k��,1.4,��
2021/05/01,05:50,0.614,0.902,0.571,1.113,0.774,0.367,0.642,0.601,-,CALM,��
2021/05/01,06:00,0.613,0.901,0.571,1.113,0.773,0.368,0.643,0.602,-,CALM,��
2021/05/01,06:10,0.613,0.902,0.573,1.113,0.773,0.366,0.642,0.602,���k��,0.9,��
2021/05/01,06:20,0.615,0.901,0.573,1.111,0.773,0.367,0.643,0.604,���쓌,1.1,��
2021/05/01,06:30,0.613,0.903,0.574,1.112,0.771,0.368,0.644,0.603,��,0.6,��
2021/05/01,06:40,0.614,0.903,0.573,1.112,0.773,0.367,0.643,0.602,-,CALM,��
2021/05/01,06:50,0.614,0.904,0.573,1.115,0.775,0.368,0.643,0.602,��,2.0,��
2021/05/01,07:00,0.613,0.903,0.574,1.115,0.774,0.370,0.643,0.603,��,2.2,��
2021/05/01,07:10,0.615,0.903,0.575,1.113,0.774,0.367,0.644,0.603,���k��,1.5,��
2021/05/01,07:20,0.615,0.901,0.574,1.113,0.773,0.367,0.645,0.602,�k,2.6,��
2021/05/01,07:30,0.612,0.903,0.573,1.112,0.774,0.367,0.645,0.603,�k,3.5,��
2021/05/01,07:40,0.616,0.902,0.572,1.113,0.774,0.366,0.644,0.603,�k�k��,3.9,��
2021/05/01,07:50,0.617,0.903,0.575,1.113,0.774,0.366,0.646,0.605,�k�k��,3.6,��
2021/05/01,08:00,0.613,0.902,0.575,1.115,0.777,0.366,0.644,0.605,�k��,2.0,��
2021/05/01,08:10,0.614,0.904,0.573,1.112,0.776,0.368,0.644,0.602,�쓌,1.7,��
2021/05/01,08:20,0.616,0.904,0.576,1.116,0.776,0.367,0.643,0.602,��,3.7,��
2021/05/01,08:30,0.615,0.906,0.576,1.117,0.775,0.367,0.646,0.601,���k��,2.6,��
2021/05/01,08:40,0.614,0.905,0.574,1.115,0.776,0.367,0.643,0.600,���쓌,3.1,��
2021/05/01,08:50,0.616,0.904,0.574,1.116,0.775,0.367,0.642,0.602,��,3.7,��
2021/05/01,09:00,0.615,0.905,0.573,1.115,0.775,0.367,0.642,0.602,���쓌,5.6,��
2021/05/01,09:10,0.615,0.907,0.575,1.112,0.776,0.367,0.642,0.601,���쓌,3.9,��
2021/05/01,09:20,0.617,0.906,0.575,1.117,0.777,0.367,0.643,0.601,���쓌,5.4,��
2021/05/01,09:30,0.615,0.908,0.575,1.114,0.776,0.368,0.644,0.601,���쓌,3.5,��
2021/05/01,09:40,0.614,0.909,0.576,1.114,0.777,0.367,0.644,0.602,�쓌,5.8,��
2021/05/01,09:50,0.617,0.909,0.575,1.116,0.777,0.366,0.643,0.601,�쓌,6.3,��
2021/05/01,10:00,0.617,0.909,0.576,1.116,0.778,0.367,0.643,0.601,���쓌,4.1,��
2021/05/01,10:10,0.616,0.908,0.576,1.115,0.777,0.366,0.643,0.600,���쓌,4.4,��
2021/05/01,10:20,0.616,0.907,0.577,1.116,0.778,0.369,0.646,0.601,���쓌,4.1,��
2021/05/01,10:30,0.615,0.910,0.576,1.116,0.778,0.368,0.643,0.602,���쓌,4.0,��
2021/05/01,10:40,0.616,0.909,0.575,1.115,0.780,0.369,0.642,0.602,���쓌,3.7,��
2021/05/01,10:50,0.617,0.912,0.575,1.115,0.778,0.367,0.643,0.603,���쓌,4.9,��
2021/05/01,11:00,0.618,0.912,0.577,1.118,0.779,0.369,0.643,0.601,���쓌,4.2,��
2021/05/01,11:10,0.619,0.911,0.575,1.114,0.780,0.368,0.642,0.601,���쓌,3.5,��
2021/05/01,11:20,0.617,0.911,0.577,1.115,0.780,0.369,0.643,0.602,���쓌,3.5,��
2021/05/01,11:30,0.619,0.913,0.578,1.113,0.780,0.368,0.644,0.603,���쓌,3.3,��
2021/05/01,11:40,0.616,0.911,0.575,1.113,0.780,0.367,0.642,0.601,��,3.4,��
2021/05/01,11:50,0.617,0.913,0.576,1.115,0.780,0.368,0.644,0.602,���쓌,2.3,��
2021/05/01,12:00,0.617,0.913,0.576,1.116,0.780,0.367,0.643,0.601,�쓌,3.7,��
2021/05/01,12:10,0.618,0.912,0.575,1.116,0.778,0.369,0.645,0.602,�쓌,3.6,��
2021/05/01,12:20,0.618,0.911,0.574,1.118,0.781,0.368,0.644,0.603,�쓌,5.9,��
2021/05/01,12:30,0.619,0.911,0.575,1.117,0.782,0.367,0.645,0.603,�쓌,6.0,��
2021/05/01,12:40,0.617,0.912,0.576,1.117,0.781,0.368,0.644,0.601,�쓌,6.5,��
2021/05/01,12:50,0.617,0.912,0.578,1.117,0.781,0.367,0.643,0.603,��쓌,6.3,��
2021/05/01,13:00,0.617,0.911,0.578,1.117,0.781,0.367,0.644,0.602,��쓌,5.2,��
2021/05/01,13:10,0.617,0.914,0.577,1.117,0.781,0.368,0.644,0.601,��쓌,4.2,��
2021/05/01,13:20,0.616,0.910,0.575,1.119,0.780,0.368,0.645,0.603,��쓌,4.6,��
2021/05/01,13:30,0.617,0.911,0.578,1.119,0.782,0.369,0.644,0.603,��쓌,5.2,��
2021/05/01,13:40,0.618,0.912,0.578,1.118,0.782,0.369,0.644,0.601,��쓌,3.2,�L
2021/05/01,13:50,0.618,0.914,0.577,1.119,0.782,0.369,0.645,0.604,�쓌,5.5,��
2021/05/01,14:00,0.618,0.913,0.577,1.119,0.781,0.369,0.645,0.602,�쓌,6.2,��
2021/05/01,14:10,0.618,0.913,0.576,1.119,0.782,0.367,0.645,0.603,��쓌,6.0,�L
2021/05/01,14:20,0.617,0.912,0.578,1.118,0.784,0.369,0.644,0.604,��쓌,7.0,��
2021/05/01,14:30,0.619,0.914,0.579,1.121,0.782,0.368,0.645,0.603,��쓌,5.8,��
2021/05/01,14:40,0.619,0.916,0.577,1.118,0.781,0.368,0.648,0.604,��쓌,6.8,��
2021/05/01,14:50,0.620,0.913,0.577,1.120,0.782,0.367,0.643,0.603,��쓌,5.0,��
2021/05/01,15:00,0.619,0.914,0.578,1.121,0.783,0.369,0.645,0.602,�쓌,6.8,��
2021/05/01,15:10,0.617,0.914,0.576,1.120,0.783,0.369,0.646,0.604,��쓌,6.4,��
2021/05/01,15:20,0.619,0.912,0.578,1.119,0.783,0.369,0.644,0.603,�쓌,5.6,��
2021/05/01,15:30,0.621,0.914,0.578,1.119,0.783,0.369,0.646,0.603,�쓌,6.6,��
2021/05/01,15:40,0.620,0.913,0.578,1.121,0.783,0.369,0.645,0.603,��쓌,7.0,��
2021/05/01,15:50,0.620,0.914,0.578,1.119,0.784,0.370,0.645,0.602,��쓌,5.8,��
2021/05/01,16:00,0.618,0.915,0.580,1.122,0.783,0.370,0.645,0.603,��쓌,5.6,��
2021/05/01,16:10,0.619,0.914,0.579,1.120,0.783,0.369,0.646,0.603,��쓌,5.3,��
2021/05/01,16:20,0.620,0.918,0.579,1.121,0.784,0.368,0.645,0.603,��쓌,4.8,��
2021/05/01,16:30,0.619,0.916,0.579,1.120,0.784,0.369,0.645,0.604,��쓌,4.8,��
2021/05/01,16:40,0.619,0.916,0.579,1.118,0.783,0.369,0.645,0.605,��쓌,4.2,��
2021/05/01,16:50,0.619,0.915,0.577,1.119,0.784,0.370,0.644,0.604,��쓌,3.1,��
2021/05/01,17:00,0.619,0.916,0.579,1.123,0.784,0.367,0.645,0.603,��쓌,2.2,��
2021/05/01,17:10,0.620,0.917,0.579,1.120,0.783,0.369,0.646,0.605,���쓌,1.1,��
2021/05/01,17:20,0.619,0.916,0.579,1.120,0.783,0.371,0.646,0.604,�k,0.6,��
2021/05/01,17:30,0.621,0.917,0.580,1.120,0.784,0.371,0.643,0.604,�k,1.7,��
2021/05/01,17:40,0.620,0.918,0.580,1.119,0.784,0.370,0.645,0.603,�k��,2.0,��
2021/05/01,17:50,0.621,0.918,0.581,1.122,0.783,0.371,0.645,0.604,�k�k��,2.6,��
2021/05/01,18:00,0.622,0.918,0.580,1.121,0.785,0.369,0.645,0.603,�k��,2.2,��
2021/05/01,18:10,0.622,0.917,0.580,1.121,0.785,0.371,0.644,0.606,���k��,2.6,��
2021/05/01,18:20,0.623,0.917,0.581,1.120,0.785,0.370,0.644,0.607,�k��,4.1,��
2021/05/01,18:30,0.622,0.920,0.581,1.120,0.786,0.371,0.647,0.607,�k��,4.9,��
2021/05/01,18:40,0.622,0.921,0.579,1.121,0.786,0.371,0.646,0.607,�k��,5.5,��
2021/05/01,18:50,0.623,0.918,0.580,1.123,0.787,0.372,0.646,0.606,�k��,5.1,��
2021/05/01,19:00,0.623,0.915,0.580,1.122,0.787,0.371,0.645,0.608,�k��,5.4,��
2021/05/01,19:10,0.621,0.920,0.583,1.122,0.787,0.371,0.645,0.606,�k�k��,7.3,��
2021/05/01,19:20,0.623,0.917,0.580,1.122,0.788,0.370,0.645,0.608,�k�k��,7.3,��
2021/05/01,19:30,0.621,0.918,0.582,1.118,0.786,0.370,0.647,0.606,�k�k��,6.6,�L
2021/05/01,19:40,0.624,0.920,0.580,1.122,0.788,0.370,0.645,0.608,�k�k��,6.2,�L
2021/05/01,19:50,0.624,0.919,0.583,1.123,0.787,0.371,0.647,0.607,�k�k��,6.2,�L
2021/05/01,20:00,0.621,0.919,0.583,1.123,0.786,0.372,0.646,0.609,�k�k��,6.5,�L
2021/05/01,20:10,0.622,0.917,0.582,1.123,0.785,0.372,0.646,0.607,�k�k��,6.1,�L
2021/05/01,20:20,0.623,0.917,0.581,1.123,0.785,0.371,0.645,0.608,�k�k��,7.3,�L
2021/05/01,20:30,0.623,0.917,0.581,1.124,0.789,0.373,0.645,0.606,�k�k��,7.7,�L
2021/05/01,20:40,0.619,0.916,0.580,1.122,0.786,0.372,0.645,0.607,�k�k��,8.1,�L
2021/05/01,20:50,0.618,0.909,0.578,1.117,0.778,0.374,0.644,0.607,�k,4.9,�L
2021/05/01,21:00,0.611,0.897,0.577,1.101,0.770,0.372,0.640,0.601,�k�k��,7.6,�L
2021/05/01,21:10,0.612,0.895,0.576,1.098,0.769,0.372,0.639,0.599,�k�k��,6.0,�L
2021/05/01,21:20,0.612,0.893,0.576,1.096,0.768,0.371,0.638,0.599,�k,3.8,�L
2021/05/01,21:30,0.612,0.890,0.575,1.090,0.762,0.371,0.634,0.595,�k�k��,3.4,�L
2021/05/01,21:40,0.610,0.886,0.577,1.085,0.760,0.371,0.633,0.594,���쓌,1.9,�L
2021/05/01,21:50,0.608,0.884,0.576,1.080,0.761,0.372,0.630,0.592,�k��,4.6,�L
2021/05/01,22:00,0.610,0.885,0.575,1.081,0.760,0.372,0.632,0.595,���k��,2.0,�L
2021/05/01,22:10,0.608,0.881,0.576,1.079,0.756,0.373,0.631,0.593,�k�k��,3.0,�L
2021/05/01,22:20,0.612,0.884,0.576,1.080,0.759,0.374,0.632,0.594,�k�k��,2.3,�L
2021/05/01,22:30,0.611,0.886,0.575,1.080,0.759,0.373,0.632,0.597,�k,6.2,�L
2021/05/01,22:40,0.612,0.886,0.574,1.082,0.759,0.371,0.632,0.594,�k,5.4,��
2021/05/01,22:50,0.610,0.885,0.573,1.083,0.759,0.370,0.633,0.595,�k,6.9,��
2021/05/01,23:00,0.611,0.886,0.572,1.080,0.759,0.369,0.631,0.597,�k,7.5,��
2021/05/01,23:10,0.609,0.885,0.569,1.082,0.758,0.368,0.633,0.597,�k�k��,8.1,��
2021/05/01,23:20,0.608,0.886,0.572,1.079,0.757,0.367,0.632,0.598,�k�k��,7.3,��
2021/05/01,23:30,0.607,0.886,0.569,1.083,0.758,0.367,0.632,0.597,�k,8.3,��
2021/05/01,23:40,0.606,0.886,0.567,1.080,0.758,0.366,0.633,0.597,�k�k��,8.2,��
2021/05/01,23:50,0.605,0.888,0.569,1.078,0.758,0.367,0.631,0.598,�k�k��,6.9,��
